Temp
87 88 87 88 88 89 89 88 89 89 88 90 90 90 90 90 91 91 91 90 90 90 89 89 89 88 89 88 88 87 87 87 87 87 86 87 86 86 86 86 86 86
87 87 87 88 88 88 89 90 89 89 88 89 90 91 91 91 91 91 90 90 90 89 89 90 89 89 88 89 88 87 86 86 85 88 86 86 86 86 87 86 87 86
87 87 88 87 89 89 91 90 89 89 90 90 90 91 91 92 91 90 90 90 90 90 89 89 89 89 88 88 88 87 86 86 85 87 86 86 87 86 87 89 87 87
87 87 88 89 89 89 89 89 89 89 90 90 90 92 92 92 91 91 90 89 90 89 90 90 90 90 89 88 87 87 87 86 87 86 86 86 86 87 86 87 88 87
87 87 88 89 89 89 89 89 90 90 90 90 91 91 90 90 90 91 90 89 89 90 90 89 89 90 89 88 87 86 87 87 86 86 85 84 86 86 87 87 86 86
88 88 88 88 89 89 89 89 89 91 91 92 90 92 91 90 90 90 90 91 91 91 91 90 90 90 90 88 87 87 87 88 88 85 84 84 86 87 87 86 85 85
88 88 88 89 89 89 89 89 89 90 91 91 91 90 91 91 89 89 90 90 91 90 90 89 88 89 89 88 87 86 87 87 88 85 84 85 85 85 87 86 84 84
89 90 90 89 89 89 89 90 90 90 90 90 91 90 91 92 90 91 90 90 91 89 89 90 89 88 90 89 87 86 86 88 87 85 84 84 85 84 85 86 84 83
89 90 89 89 90 90 92 92 92 91 91 90 91 92 91 91 91 91 89 89 89 89 88 88 88 88 89 89 87 86 86 87 87 86 84 84 85 85 85 85 84 84
89 90 91 92 91 91 92 93 94 92 91 91 91 93 92 90 91 91 90 88 88 88 88 88 88 88 88 89 88 87 87 86 87 86 86 86 86 86 86 85 85 84
90 91 90 90 92 93 93 95 95 95 93 92 92 92 93 92 90 90 89 88 88 88 88 88 88 88 88 89 89 88 88 88 87 87 87 86 86 86 84 85 85 85
89 90 91 91 91 94 94 95 96 95 95 94 93 92 92 94 91 90 90 88 88 89 88 88 88 88 87 88 90 89 88 89 88 88 88 87 87 87 87 86 86 86
90 90 91 91 91 91 94 95 95 97 97 95 94 94 94 94 94 91 90 89 89 89 89 88 88 88 87 87 88 88 88 88 88 88 87 87 87 88 89 88 88 87
90 91 90 90 91 90 91 93 94 95 94 94 94 93 94 94 95 93 92 91 90 89 89 89 88 88 88 87 87 88 88 88 88 87 87 87 87 88 89 90 89 89
89 90 90 90 91 90 90 91 92 92 93 93 92 93 94 95 95 95 92 90 90 89 89 89 89 88 89 88 87 87 88 88 87 87 87 87 87 88 88 88 89 90
89 89 89 89 89 89 88 89 91 91 92 92 92 92 92 92 92 93 94 92 90 89 89 89 89 89 81 73 76 87 87 88 87 87 87 87 86 86 88 88 89 90
88 88 88 88 88 88 88 88 89 90 90 90 90 90 90 90 91 92 93 94 92 91 89 89 89 88 71 68 69 72 85 87 87 86 86 86 86 85 85 86 87 88
88 88 87 87 87 87 88 88 89 88 88 88 89 89 89 90 90 90 90 92 92 92 91 90 90 76 67 66 67 68 74 87 88 87 87 86 86 86 86 87 87 87
88 88 87 87 87 87 88 87 87 87 88 88 89 89 89 88 88 89 89 90 91 90 91 91 91 72 65 64 66 66 68 78 89 88 87 87 87 86 86 86 86 85
88 88 87 87 87 87 87 87 87 87 88 90 90 88 87 88 88 88 88 88 88 89 89 91 92 72 64 63 64 64 66 72 88 88 87 87 87 87 87 86 85 84
88 87 87 87 87 87 87 87 87 87 87 89 90 89 88 87 87 87 87 88 89 90 89 91 93 68 62 61 61 61 63 69 86 87 87 87 87 87 86 86 86 85
88 87 87 87 87 87 87 86 86 86 86 88 89 90 90 90 88 89 89 88 88 89 89 89 92 66 60 60 60 60 62 77 84 84 85 86 87 86 86 86 86 85
88 88 87 87 87 87 86 87 86 86 87 88 88 89 90 89 89 90 89 89 89 88 88 88 91 73 59 59 59 58 64 81 82 84 84 85 85 86 86 86 85 85
89 88 88 87 87 87 87 87 89 89 88 88 88 88 90 91 91 90 89 89 90 90 91 89 91 76 57 58 58 57 67 81 82 83 83 83 85 86 86 85 84 75
90 89 89 89 87 88 89 88 88 88 89 89 90 89 90 90 90 90 90 90 93 93 78 86 92 80 56 58 56 56 68 81 83 83 82 83 84 84 85 86 85 78
90 89 88 89 88 88 89 89 90 90 90 90 90 90 90 91 91 90 90 90 93 92 92 91 90 91 71 56 55 55 60 80 84 82 83 82 84 84 84 84 84 85
MSLP
1011.81 1012.01 1012.33 1012.57 1012.69 1012.73 1012.93 1013.21 1013.21 1013.49 1013.69 1013.73 1014.05 1014.09 1014.21 1014.13 1014.17 1014.41 1014.65 1014.85 1015.13 1015.33 1015.53 1015.73 1015.93 1016.25 1016.41 1016.61 1016.77 1017.01 1017.21 1017.37 1017.49 1017.57 1017.85 1018.05 1018.33 1018.45 1018.69 1018.85 1018.93 1019.09
1011.41 1011.61 1011.81 1012.01 1012.25 1012.29 1012.37 1012.45 1012.77 1013.01 1013.29 1013.37 1013.37 1013.49 1013.57 1013.73 1013.89 1014.09 1014.37 1014.65 1014.85 1015.05 1015.17 1015.37 1015.61 1015.85 1016.09 1016.33 1016.57 1016.89 1017.09 1017.21 1017.49 1017.17 1017.73 1017.97 1018.05 1018.13 1018.37 1018.49 1018.69 1018.69
1010.97 1011.25 1011.49 1011.77 1011.85 1011.97 1012.01 1012.13 1012.33 1012.53 1012.77 1012.81 1012.93 1013.09 1013.21 1013.25 1013.61 1013.77 1013.97 1014.25 1014.53 1014.73 1014.93 1015.01 1015.25 1015.49 1015.73 1016.01 1016.21 1016.57 1016.89 1017.05 1017.25 1017.09 1017.41 1017.81 1017.73 1017.97 1017.97 1018.05 1018.25 1018.49
1010.45 1010.61 1010.85 1011.09 1011.25 1011.49 1011.65 1011.93 1012.09 1012.21 1012.25 1012.57 1012.61 1012.53 1012.73 1012.85 1013.13 1013.45 1013.69 1013.89 1014.21 1014.41 1014.53 1014.73 1014.89 1015.09 1015.37 1015.65 1015.93 1016.29 1016.45 1016.69 1016.73 1016.89 1017.29 1017.45 1017.53 1017.61 1017.77 1017.77 1017.89 1018.09
1009.81 1010.09 1010.25 1010.49 1010.65 1010.89 1011.17 1011.53 1011.69 1011.77 1011.93 1011.93 1012.05 1012.21 1012.45 1012.69 1012.89 1013.13 1013.37 1013.61 1013.81 1014.09 1014.25 1014.49 1014.57 1014.77 1014.97 1015.33 1015.57 1016.01 1016.13 1016.37 1016.45 1016.73 1017.17 1017.45 1017.37 1017.49 1017.53 1017.61 1017.85 1018.05
1009.09 1009.37 1009.65 1009.97 1010.17 1010.53 1010.85 1011.01 1011.13 1011.25 1011.41 1011.61 1011.69 1011.69 1011.97 1012.21 1012.49 1012.69 1012.93 1013.25 1013.41 1013.61 1013.85 1014.01 1014.29 1014.41 1014.61 1014.93 1015.25 1015.57 1015.73 1015.93 1016.01 1016.49 1017.01 1017.29 1017.21 1017.09 1017.21 1017.37 1017.61 1017.85
1008.61 1008.85 1009.17 1009.33 1009.69 1009.93 1010.29 1010.45 1010.61 1010.77 1010.89 1010.93 1011.13 1011.49 1011.49 1011.85 1012.13 1012.33 1012.49 1012.73 1012.93 1013.21 1013.45 1013.69 1013.93 1014.13 1014.21 1014.53 1014.89 1015.25 1015.37 1015.53 1015.61 1016.13 1016.73 1016.89 1016.97 1017.01 1016.97 1017.13 1017.33 1017.49
1007.85 1008.09 1008.49 1008.81 1009.21 1009.49 1009.81 1009.97 1010.13 1010.33 1010.41 1010.61 1010.93 1010.97 1011.09 1011.37 1011.65 1011.81 1012.05 1012.29 1012.61 1012.85 1013.09 1013.29 1013.53 1013.77 1013.89 1014.13 1014.61 1014.93 1015.17 1015.17 1015.45 1015.85 1016.37 1016.61 1016.61 1016.85 1016.85 1016.85 1016.93 1017.21
1007.21 1007.61 1007.93 1008.37 1008.73 1008.97 1009.21 1009.33 1009.53 1009.77 1009.85 1010.29 1010.45 1010.49 1010.61 1010.85 1011.09 1011.29 1011.61 1011.89 1012.21 1012.45 1012.73 1012.97 1013.17 1013.45 1013.53 1013.77 1014.09 1014.45 1014.77 1014.81 1014.93 1015.37 1015.93 1016.25 1016.37 1016.41 1016.45 1016.49 1016.69 1016.85
1006.85 1007.01 1007.41 1007.73 1008.17 1008.29 1008.57 1008.61 1008.77 1009.09 1009.29 1009.69 1009.85 1009.93 1010.21 1010.41 1010.57 1010.85 1011.17 1011.57 1011.89 1012.13 1012.37 1012.61 1012.85 1013.05 1013.21 1013.33 1013.65 1013.89 1014.21 1014.41 1014.57 1014.81 1015.13 1015.45 1015.65 1015.77 1015.89 1016.13 1016.29 1016.57
1006.25 1006.53 1006.93 1007.21 1007.41 1007.53 1007.81 1007.97 1008.13 1008.33 1008.61 1009.01 1009.21 1009.45 1009.57 1009.89 1010.25 1010.37 1010.77 1011.13 1011.49 1011.73 1012.01 1012.21 1012.37 1012.57 1012.89 1013.05 1013.13 1013.29 1013.57 1013.85 1014.05 1014.33 1014.57 1014.81 1015.01 1015.13 1015.33 1015.57 1015.81 1015.97
1005.61 1005.93 1006.25 1006.53 1006.77 1006.85 1007.05 1007.29 1007.45 1007.73 1007.93 1008.25 1008.49 1008.89 1009.05 1009.21 1009.61 1009.93 1010.21 1010.61 1010.85 1011.09 1011.33 1011.61 1011.77 1012.05 1012.33 1012.57 1012.73 1012.85 1013.09 1013.29 1013.53 1013.77 1014.01 1014.21 1014.37 1014.49 1014.65 1014.89 1015.21 1015.37
1004.89 1005.21 1005.41 1005.73 1006.05 1006.25 1006.37 1006.61 1006.85 1006.97 1007.21 1007.53 1007.69 1008.09 1008.45 1008.69 1008.85 1009.29 1009.53 1009.89 1010.25 1010.49 1010.77 1011.05 1011.29 1011.53 1011.81 1012.05 1012.25 1012.41 1012.65 1012.93 1013.13 1013.41 1013.57 1013.73 1013.77 1013.81 1013.93 1014.21 1014.45 1014.65
1004.09 1004.29 1004.69 1004.97 1005.21 1005.65 1005.93 1006.05 1006.21 1006.41 1006.61 1006.81 1007.05 1007.49 1007.77 1008.01 1008.25 1008.61 1008.93 1009.29 1009.65 1009.97 1010.13 1010.37 1010.73 1011.01 1011.25 1011.49 1011.77 1011.97 1012.21 1012.49 1012.69 1012.97 1013.17 1013.25 1013.25 1013.29 1013.33 1013.53 1013.77 1013.93
1003.45 1003.81 1004.09 1004.49 1004.85 1005.25 1005.61 1005.77 1005.89 1006.05 1006.21 1006.45 1006.69 1006.93 1007.09 1007.25 1007.49 1007.85 1008.41 1008.85 1009.09 1009.33 1009.61 1009.81 1010.13 1010.37 1010.53 1010.85 1011.25 1011.57 1011.61 1012.01 1012.25 1012.45 1012.65 1012.85 1012.93 1012.93 1012.97 1013.05 1013.17 1013.29
1002.93 1003.29 1003.65 1004.01 1004.49 1004.81 1005.09 1005.29 1005.53 1005.69 1005.93 1006.21 1006.41 1006.57 1006.73 1006.89 1007.09 1007.37 1007.73 1008.21 1008.65 1008.89 1009.09 1009.29 1009.45 1009.53 1009.73 1010.17 1010.45 1010.77 1011.13 1011.41 1011.69 1011.93 1012.13 1012.25 1012.53 1012.69 1012.65 1012.65 1012.69 1012.77
1002.57 1002.89 1003.17 1003.69 1003.89 1004.25 1004.53 1004.93 1005.17 1005.37 1005.65 1005.89 1006.13 1006.29 1006.49 1006.69 1006.93 1007.21 1007.33 1007.45 1007.85 1008.29 1008.61 1008.69 1008.81 1008.81 1009.25 1009.69 1010.05 1010.37 1010.57 1010.89 1011.25 1011.49 1011.61 1011.77 1011.93 1012.21 1012.33 1012.33 1012.29 1012.37
1002.05 1002.45 1002.93 1003.21 1003.53 1003.89 1004.13 1004.41 1004.69 1005.05 1005.37 1005.57 1005.81 1006.09 1006.25 1006.33 1006.69 1006.85 1006.97 1007.05 1007.21 1007.49 1007.81 1007.97 1008.05 1008.17 1008.73 1009.17 1009.61 1009.93 1010.13 1010.33 1010.57 1010.89 1011.09 1011.25 1011.37 1011.49 1011.65 1011.73 1011.89 1011.97
1001.73 1002.17 1002.53 1002.85 1003.05 1003.29 1003.65 1004.01 1004.41 1004.73 1005.05 1005.29 1005.53 1005.53 1005.77 1006.13 1006.25 1006.41 1006.61 1006.61 1006.73 1007.05 1007.21 1007.21 1007.37 1007.61 1008.17 1008.69 1009.09 1009.41 1009.73 1009.93 1009.97 1010.17 1010.49 1010.65 1010.73 1010.85 1011.01 1011.17 1011.33 1011.57
1001.53 1001.81 1002.13 1002.29 1002.57 1002.97 1003.37 1003.77 1004.13 1004.37 1004.45 1004.61 1004.89 1005.17 1005.45 1005.69 1005.81 1006.01 1006.09 1006.25 1006.33 1006.53 1006.69 1006.69 1006.73 1006.97 1007.61 1008.13 1008.61 1009.01 1009.33 1009.57 1009.45 1009.65 1009.85 1009.97 1010.13 1010.29 1010.41 1010.57 1010.73 1010.97
1001.25 1001.49 1001.81 1002.13 1002.45 1002.77 1003.13 1003.49 1003.69 1003.89 1004.17 1004.21 1004.37 1004.69 1005.01 1005.25 1005.41 1005.61 1005.57 1005.69 1005.85 1006.05 1006.29 1006.33 1006.13 1006.45 1007.05 1007.61 1008.09 1008.57 1008.93 1009.29 1009.17 1009.21 1009.29 1009.37 1009.45 1009.65 1009.89 1010.01 1010.09 1010.25
1000.57 1001.09 1001.53 1001.89 1002.25 1002.57 1002.93 1003.17 1003.29 1003.45 1003.73 1003.85 1004.05 1004.13 1004.21 1004.49 1004.73 1004.77 1005.05 1005.29 1005.41 1005.53 1005.73 1005.89 1005.65 1006.01 1006.57 1007.13 1007.57 1008.09 1008.65 1008.97 1008.85 1009.01 1009.05 1009.05 1009.05 1009.09 1009.21 1009.33 1009.45 1009.69
999.89 1000.53 1001.13 1001.53 1001.85 1002.25 1002.53 1002.69 1002.89 1003.05 1003.25 1003.33 1003.81 1003.81 1003.97 1004.09 1004.13 1004.25 1004.37 1004.69 1004.89 1005.01 1005.21 1005.21 1005.25 1005.53 1006.13 1006.53 1007.05 1007.57 1008.25 1008.17 1008.29 1008.49 1008.65 1008.73 1008.61 1008.57 1008.61 1008.69 1008.77 1008.93
999.61 1000.09 1000.65 1001.01 1001.37 1001.73 1001.89 1001.93 1002.01 1002.21 1002.53 1002.57 1003.09 1003.45 1003.57 1003.41 1003.53 1003.85 1003.85 1003.97 1004.17 1004.33 1004.33 1004.77 1004.81 1004.89 1005.57 1006.05 1006.45 1007.09 1007.29 1007.41 1007.53 1007.73 1007.85 1007.85 1007.73 1007.73 1007.73 1007.93 1008.01 1008.41
999.13 999.53 999.97 1000.45 1000.85 1001.01 1001.09 1001.49 1001.69 1001.89 1002.05 1002.33 1002.57 1002.81 1002.97 1003.01 1003.17 1003.33 1003.45 1003.45 1003.37 1003.41 1003.65 1004.17 1004.13 1004.33 1005.05 1005.69 1006.17 1006.57 1006.85 1006.85 1007.01 1007.21 1007.41 1007.21 1007.29 1007.33 1007.25 1007.45 1007.69 1008.01
998.57 999.01 999.33 999.65 1000.01 1000.33 1000.65 1000.97 1001.21 1001.57 1001.81 1001.97 1002.17 1002.37 1002.65 1002.73 1002.81 1002.89 1003.13 1003.09 1002.93 1003.13 1003.21 1003.33 1003.57 1003.53 1004.33 1005.17 1005.69 1006.17 1006.37 1006.25 1006.21 1006.73 1006.89 1006.85 1006.81 1006.93 1007.21 1007.21 1007.25 1007.49
Wind_Speed
14 13 13 13 13 12 12 12 11 12 11 11 11 10 11 10 10 11 11 10 10 11 10 10 9 9 9 9 9 8 8 8 7 7 8 8 8 8 7 8 7 6
16 15 12 12 11 11 11 12 12 11 11 11 11 10 9 10 10 11 11 11 11 11 11 11 10 10 10 9 9 9 8 8 8 6 8 10 8 9 8 8 8 7
16 16 16 16 14 15 15 12 12 12 11 12 11 10 10 10 10 11 11 11 11 11 11 11 11 11 10 10 9 9 9 10 8 8 8 10 9 8 8 9 8 9
18 17 16 16 15 14 13 12 12 11 12 11 12 12 11 9 10 12 11 12 11 11 11 12 12 11 11 11 10 9 9 9 9 8 9 8 9 9 8 7 8 8
19 18 16 15 15 14 13 14 15 13 14 13 12 12 11 11 11 12 11 12 12 12 11 12 12 11 11 10 11 10 10 9 9 9 8 9 9 10 9 8 8 9
17 17 17 16 15 15 14 15 15 15 14 14 14 12 12 13 12 12 12 13 12 12 13 12 12 12 12 11 11 10 10 10 10 10 10 10 10 10 9 9 10 10
19 18 19 17 17 16 16 15 14 14 14 13 12 12 12 13 13 13 13 13 13 12 13 12 12 12 11 11 11 11 10 10 10 11 11 10 10 11 11 10 11 11
20 18 18 16 17 17 17 16 15 14 14 13 13 13 13 13 14 13 13 13 13 13 13 13 13 13 12 11 12 12 12 10 11 11 11 12 11 11 12 10 11 11
19 18 17 19 19 17 18 18 16 15 14 14 14 13 13 13 13 13 13 14 13 13 13 13 13 13 12 12 12 13 13 12 12 13 13 13 13 13 13 12 12 12
18 18 19 19 19 17 19 19 17 15 15 15 15 14 13 13 14 14 13 13 13 13 13 13 14 13 13 13 13 14 13 13 13 13 13 13 13 13 14 13 13 12
20 20 20 20 20 18 20 19 18 17 15 16 16 16 15 13 13 14 13 14 13 14 14 14 14 14 14 14 13 13 14 14 14 13 13 13 14 14 14 13 13 13
20 20 21 21 21 20 20 19 18 18 17 16 17 17 16 16 15 14 14 15 14 15 15 15 14 14 15 14 14 14 13 13 13 14 14 14 14 14 14 13 13 13
21 21 20 20 20 19 18 18 19 19 19 18 16 17 17 17 17 16 14 15 15 15 15 15 14 15 14 15 14 14 14 14 13 14 14 13 14 15 14 14 14 14
20 20 20 19 18 17 18 18 18 18 18 17 16 17 17 18 17 17 15 14 15 15 15 14 14 14 15 15 14 14 14 14 14 14 14 14 14 14 14 14 15 15
17 17 17 17 18 17 18 18 18 17 17 16 16 16 14 16 17 16 16 15 15 15 15 15 14 14 13 14 15 16 14 14 14 14 14 14 14 14 14 15 15 14
17 16 16 17 18 18 18 18 18 17 17 17 17 16 15 14 15 16 16 16 16 16 15 14 14 12 14 18 16 14 15 13 13 14 14 14 13 14 14 15 15 14
16 17 16 18 18 17 17 17 18 16 16 16 16 16 16 14 14 16 16 16 16 16 16 14 13 12 17 19 19 18 14 13 13 13 14 15 14 14 14 14 14 15
16 17 16 17 17 18 17 17 17 17 16 16 16 17 15 15 15 16 16 16 14 16 16 15 14 15 19 20 20 20 18 14 13 13 13 14 15 15 13 13 14 14
15 16 17 16 17 17 16 15 16 17 17 16 17 16 15 16 16 16 16 16 16 16 16 16 15 16 20 21 21 22 21 18 13 13 14 14 14 15 15 13 13 13
15 16 17 17 16 16 15 16 16 17 17 16 15 15 16 16 17 17 16 16 16 16 15 15 16 16 22 22 22 23 22 20 15 15 14 14 15 15 14 14 15 13
16 16 16 15 15 15 15 16 17 16 17 16 15 16 16 16 16 17 16 16 16 16 15 15 15 16 21 23 22 23 23 20 16 15 14 14 14 14 15 15 15 14
17 16 15 14 14 15 15 17 17 16 16 15 14 14 14 14 14 15 16 16 16 16 16 16 15 17 20 22 23 23 23 16 17 16 15 14 14 15 15 15 17 17
17 16 15 15 15 16 17 17 17 16 15 13 15 15 15 15 15 16 14 15 17 17 17 16 16 15 20 23 23 25 19 15 17 15 16 17 16 15 15 16 16 17
14 15 15 16 15 17 17 17 16 15 15 14 15 15 16 16 14 13 14 15 17 18 17 17 16 14 22 22 24 24 22 17 16 16 17 18 19 18 16 15 17 19
14 15 16 16 16 17 17 16 16 14 13 12 13 14 14 13 13 13 13 14 16 18 15 18 17 14 20 21 23 25 21 15 15 15 16 17 17 17 18 17 16 14
14 15 16 17 17 16 14 14 12 12 13 14 13 12 12 13 13 13 15 14 14 15 15 18 19 15 16 23 24 24 26 17 15 17 19 18 17 17 17 17 17 15
Wind_Direction
203 205 206 207 209 210 209 207 207 206 206 207 210 210 211 211 207 207 207 204 202 202 199 199 199 208 219 223 222 220 223 222 224 200 210 209 205 207 207 207 210 212
205 206 207 208 210 210 210 209 207 206 205 207 211 211 210 208 203 203 202 202 200 201 199 198 199 204 212 219 218 219 220 219 220 209 206 210 212 204 207 206 210 208
203 203 205 207 208 208 209 208 208 208 209 208 208 210 209 204 203 200 202 202 202 202 199 200 200 200 203 214 218 219 218 219 216 213 207 214 214 204 206 204 207 204
202 204 206 209 210 210 208 208 208 211 212 210 209 208 208 206 202 200 201 201 204 203 201 201 202 200 201 205 212 220 219 221 218 213 211 215 213 211 204 206 205 199
200 202 206 208 209 209 206 208 212 208 211 212 211 208 206 206 203 203 201 201 203 203 202 202 201 202 198 201 204 215 219 218 210 207 209 215 213 211 205 201 201 202
199 201 203 205 206 205 207 209 210 211 210 211 210 207 207 204 205 205 204 204 203 206 205 203 202 202 199 200 200 208 214 217 208 194 208 215 215 210 208 197 198 202
198 199 203 204 205 204 208 210 210 211 212 212 207 209 207 206 206 205 205 205 207 206 207 205 204 204 201 200 200 201 206 210 212 193 202 215 215 211 211 196 199 202
199 199 201 202 204 205 208 209 210 208 210 208 207 207 207 207 206 205 204 205 207 206 206 206 204 205 201 199 198 198 199 200 208 202 200 215 215 213 212 204 199 203
197 198 198 201 203 205 208 208 208 208 206 207 208 208 206 210 208 207 203 203 206 204 203 205 204 204 204 201 200 198 197 197 199 199 203 212 213 214 213 207 202 203
197 200 200 200 204 206 208 209 208 207 205 208 209 211 208 206 209 208 204 201 203 203 203 203 202 204 205 204 202 199 199 197 195 195 199 208 212 210 209 207 206 204
197 199 201 204 206 206 208 209 209 209 206 208 209 212 211 206 206 207 205 201 202 202 202 203 203 202 203 206 204 203 202 199 196 194 196 200 207 209 207 205 206 208
197 199 202 204 206 209 209 209 209 210 209 207 209 212 210 209 206 204 204 203 203 202 202 204 203 203 203 205 207 203 202 202 199 198 198 200 205 207 206 206 208 210
197 199 201 204 205 208 208 209 211 211 210 210 207 209 209 210 208 207 203 203 203 203 203 203 204 204 204 204 207 207 204 202 200 197 198 202 208 210 208 206 208 210
198 198 200 202 203 203 206 208 210 211 211 211 209 209 211 210 209 206 204 202 203 204 204 204 204 204 204 204 206 206 204 202 200 198 200 205 209 211 211 210 209 212
194 197 200 200 201 201 204 207 209 210 210 210 210 212 211 212 210 208 204 202 202 203 203 204 206 205 204 203 207 207 203 202 202 201 203 206 209 211 211 212 212 214
191 193 195 197 199 200 201 204 207 208 209 209 210 211 211 211 211 210 208 204 202 202 204 204 206 206 198 194 195 199 200 202 201 204 206 208 208 212 212 211 212 214
188 193 193 195 198 198 200 201 204 206 208 208 210 210 211 209 209 210 211 210 207 205 205 206 206 206 186 186 188 191 198 202 202 203 206 209 211 210 213 211 211 212
190 190 192 195 195 199 198 199 201 204 206 206 207 208 209 210 210 211 213 214 212 211 210 210 210 197 180 185 185 186 192 201 205 206 206 210 213 213 214 214 210 209
192 192 195 194 196 195 196 197 200 203 205 206 207 207 207 210 211 210 212 213 214 214 215 213 217 186 182 183 185 187 190 199 209 208 208 212 214 215 215 214 210 206
196 196 197 198 195 193 194 198 201 205 206 208 209 208 210 212 213 213 214 214 214 216 217 218 222 184 183 182 185 187 190 196 212 209 211 214 217 218 217 215 210 203
199 201 201 197 195 195 196 202 206 208 207 210 210 211 212 213 213 214 216 216 214 215 218 221 226 186 181 182 184 186 190 195 210 215 216 216 216 219 223 222 215 208
197 199 199 197 197 198 201 206 209 209 210 208 213 215 216 216 216 218 218 216 215 215 218 225 228 187 181 181 184 186 184 195 208 215 219 219 220 221 222 226 228 224
195 195 195 197 197 199 204 208 210 211 210 206 211 215 216 216 217 217 218 217 217 219 222 227 232 195 181 182 183 182 179 198 204 210 219 225 226 221 221 224 222 222
192 193 194 196 199 203 206 209 210 210 210 205 211 213 217 220 218 220 219 218 219 221 219 224 231 196 180 183 182 179 184 195 201 205 211 218 227 224 222 223 222 217
193 195 197 199 202 207 209 211 211 212 212 209 214 217 222 223 222 224 223 222 223 225 217 222 232 210 178 183 184 180 187 198 201 209 211 215 217 222 224 226 227 212
196 197 199 201 204 207 208 211 211 212 212 212 216 218 222 223 223 226 228 227 226 224 223 223 228 226 178 185 181 183 189 196 206 213 221 217 219 225 224 225 225 222